Date String (YYYY-MM-DD hh:mm:ss) UTC,Instrument flags,absolute air pressure of the measurement (hPa),sample flow rate (lpm),inlet stack bypass flow (lpm),air temperature of the measurement (°C),ambient temperature measured by the external sensor (°C),aerosol sample conditioner tube jacket temperature (°C),OPC LED temperature (°C),internal box temperature (°C),relative humidity of the measurement (%),span deviation,mass concentration of particles derived from Lorenz-Mie calculation of OPC scattering (μg/m³),mass concentration of particles derived from Lorenz-Mie calculation of OPC scattering (μg/m³),mass concentration of particles derived from Lorenz-Mie calculation of OPC scattering (μg/m³)
DateTimeUTC,F1_M11,P_M11,Q1_M11,Q2_M11,T1_M11,T2_M11,T3_M11,T4_M11,T5_M11,U1_M11,ZSPAN_M11,X2_M11,X0_M11,X1_M11
2024-05-17 12:00:00,SystemResetWarning,0823.2,5.01,000.00,026.0,025.3,000.0,034.2,027.8,014.5,0000.0,0002.99,0008.15,0002.16
2024-05-17 12:01:00,SystemResetWarning,0823.0,5.00,000.00,026.1,025.3,000.0,034.2,027.8,014.4,0000.0,0002.99,0008.17,0002.18
2024-05-17 12:02:00,SystemResetWarning,0823.0,5.00,000.00,026.1,025.3,000.0,034.2,027.8,014.7,0000.0,0003.04,0007.65,0002.19
2024-05-17 12:03:00,SystemResetWarning,0823.0,5.00,000.00,026.1,025.3,000.0,034.2,027.8,014.7,0000.0,0003.11,0007.52,0002.20
2024-05-17 12:04:00,SystemResetWarning,0823.0,5.00,000.00,026.1,025.3,000.0,034.2,027.8,014.8,0000.0,0003.15,0007.36,0002.21
2024-05-17 12:05:00,SystemResetWarning,0823.0,4.99,000.00,026.1,025.3,000.0,034.2,027.8,014.7,0000.0,0003.17,0006.70,0002.22
2024-05-17 12:06:00,SystemResetWarning,0823.0,4.99,000.00,026.1,025.3,000.0,034.2,027.8,014.5,0000.0,0003.20,0007.72,0002.24
2024-05-17 12:07:00,SystemResetWarning,0823.0,5.00,000.00,026.1,025.3,000.0,034.2,027.8,014.6,0000.0,0003.19,0007.63,0002.23
2024-05-17 12:08:00,SystemResetWarning,0823.0,5.00,000.00,026.1,025.3,000.0,034.2,027.8,014.4,0000.0,0003.17,0007.39,0002.21
2024-05-17 12:09:00,SystemResetWarning,0823.1,5.00,000.00,026.1,025.3,000.0,034.2,027.8,014.4,0000.0,0003.19,0007.13,0002.23
2024-05-17 12:10:00,SystemResetWarning,0823.0,5.00,000.00,026.1,025.3,000.0,034.2,027.8,014.5,0000.0,0003.19,0007.05,0002.22
2024-05-17 12:11:00,SystemResetWarning,0823.0,5.00,000.00,026.1,025.3,000.0,034.2,027.9,014.3,0000.0,0003.16,0006.96,0002.20
2024-05-17 12:12:00,SystemResetWarning,0822.9,5.01,000.00,026.1,025.3,000.0,034.2,027.9,014.2,0000.0,0003.14,0007.02,0002.18
2024-05-17 12:13:00,SystemResetWarning,0823.0,5.00,000.00,026.1,025.3,000.0,034.2,027.9,013.9,0000.0,0003.11,0006.85,0002.17
2024-05-17 12:14:00,SystemResetWarning,0823.0,5.01,000.00,026.1,025.4,000.0,034.2,027.9,014.0,0000.0,0003.06,0007.62,0002.17
2024-05-17 12:15:00,SystemResetWarning,0823.0,5.01,000.00,026.1,025.4,000.0,034.2,027.9,013.9,0000.0,0003.02,0007.60,0002.15
2024-05-17 12:16:00,SystemResetWarning,0823.1,5.00,000.00,026.1,025.4,000.0,034.3,027.9,013.9,0000.0,0002.97,0007.53,0002.14
2024-05-17 12:17:00,SystemResetWarning,0823.0,5.00,000.00,026.1,025.4,000.0,034.2,027.9,013.9,0000.0,0002.87,0005.92,0002.12
2024-05-17 12:18:00,SystemResetWarning,0823.0,5.00,000.00,026.1,025.4,000.0,034.3,027.9,014.2,0000.0,0002.92,0006.77,0002.12
2024-05-17 12:19:00,SystemResetWarning,0823.0,4.99,000.00,026.1,025.4,000.0,034.3,027.9,014.3,0000.0,0002.93,0007.19,0002.12
2024-05-17 12:20:00,SystemResetWarning,0823.0,5.00,000.00,026.1,025.4,000.0,034.3,027.9,014.4,0000.0,0002.89,0007.21,0002.11
2024-05-17 12:21:00,SystemResetWarning,0823.0,5.01,000.00,026.1,025.4,000.0,034.3,027.9,014.3,0000.0,0002.82,0007.22,0002.10
2024-05-17 12:22:00,SystemResetWarning,0823.0,4.99,000.00,026.0,024.4,000.0,034.3,027.2,014.3,0000.0,0002.79,0007.14,0002.11
2024-05-17 12:23:00,SystemResetWarning,0823.0,5.00,000.00,025.6,022.6,000.0,034.4,026.4,014.4,0000.0,0002.78,0006.99,0002.12
2024-05-17 12:24:00,SystemResetWarning,0822.8,5.02,000.00,025.4,022.6,000.0,034.3,026.3,014.7,0000.0,0002.78,0007.07,0002.11
2024-05-17 12:25:00,SystemResetWarning,0822.9,4.98,000.00,025.3,022.9,000.0,034.1,026.4,014.9,0000.0,0002.75,0006.46,0002.11
2024-05-17 12:26:00,SystemResetWarning,0822.9,5.00,000.00,025.3,023.2,000.0,034.0,026.6,014.9,0000.0,0002.73,0007.18,0002.11
2024-05-17 12:27:00,SystemResetWarning,0823.0,4.99,000.00,025.3,023.5,000.0,033.9,026.8,015.1,0000.0,0002.76,0007.39,0002.13
2024-05-17 12:28:00,SystemResetWarning,0822.9,5.01,000.00,025.3,023.7,000.0,033.9,026.9,015.0,0000.0,0002.83,0007.80,0002.14
2024-05-17 12:29:00,SystemResetWarning,0823.0,5.00,000.00,025.3,024.0,000.0,033.8,027.0,015.0,0000.0,0002.87,0008.13,0002.16
2024-05-17 12:30:00,SystemResetWarning,0823.0,5.00,000.00,025.3,024.1,000.0,033.8,027.0,014.9,0000.0,0002.89,0007.79,0002.17
2024-05-17 12:31:00,SystemResetWarning,0823.1,5.00,000.00,025.4,024.3,000.0,033.7,027.1,015.0,0000.0,0002.94,0007.89,0002.17
2024-05-17 12:32:00,SystemResetWarning,0823.1,5.00,000.00,025.4,024.4,000.0,033.7,027.1,015.1,0000.0,0002.96,0007.87,0002.18
2024-05-17 12:33:00,SystemResetWarning,0823.1,5.01,000.00,025.4,024.5,000.0,033.7,027.2,015.2,0000.0,0002.96,0007.86,0002.17
2024-05-17 12:34:00,SystemResetWarning,0823.1,5.00,000.00,025.5,024.6,000.0,033.7,027.2,015.2,0000.0,0002.96,0008.03,0002.16
2024-05-17 12:35:00,SystemResetWarning,0823.2,5.00,000.00,025.5,024.6,000.0,033.7,027.2,015.1,0000.0,0002.98,0008.69,0002.15
2024-05-17 12:36:00,SystemResetWarning,0823.2,5.00,000.00,025.5,024.7,000.0,033.7,027.3,015.1,0000.0,0003.02,0008.70,0002.16
2024-05-17 12:37:00,SystemResetWarning,0823.3,4.99,000.00,025.5,024.8,000.0,033.7,027.3,015.2,0000.0,0003.07,0008.41,0002.16
2024-05-17 12:38:00,SystemResetWarning,0823.3,4.99,000.00,025.6,024.8,000.0,033.7,027.3,015.1,0000.0,0003.08,0008.29,0002.15
2024-05-17 12:39:00,SystemResetWarning,0823.3,4.99,000.00,025.6,024.8,000.0,033.7,027.3,015.2,0000.0,0003.01,0007.91,0002.14
2024-05-17 12:40:00,SystemResetWarning,0823.2,5.00,000.00,025.6,024.9,000.0,033.7,027.4,015.0,0000.0,0002.95,0007.23,0002.13
2024-05-17 12:41:00,SystemResetWarning,0823.3,5.00,000.00,025.6,024.9,000.0,033.7,027.4,015.0,0000.0,0002.89,0007.93,0002.11
2024-05-17 12:42:00,SystemResetWarning,0823.2,5.00,000.00,025.6,024.9,000.0,033.7,027.4,014.8,0000.0,0002.82,0007.82,0002.12
2024-05-17 12:43:00,SystemResetWarning,0823.3,5.00,000.00,025.7,025.0,000.0,033.8,027.5,014.7,0000.0,0002.83,0007.80,0002.11
2024-05-17 12:44:00,SystemResetWarning,0823.3,5.00,000.00,025.7,025.0,000.0,033.8,027.5,015.0,0000.0,0002.88,0007.92,0002.14
2024-05-17 12:45:00,SystemResetWarning,0823.3,5.01,000.00,025.7,025.0,000.0,033.8,027.5,015.2,0000.0,0002.92,0007.98,0002.13
2024-05-17 12:46:00,SystemResetWarning,0823.3,5.00,000.00,025.7,025.0,000.0,033.8,027.5,015.3,0000.0,0002.90,0007.86,0002.14
2024-05-17 12:47:00,SystemResetWarning,0823.4,5.01,000.00,025.8,025.1,000.0,033.8,027.5,015.5,0000.0,0002.81,0007.92,0002.13
2024-05-17 12:48:00,SystemResetWarning,0823.3,5.00,000.00,025.8,025.1,000.0,033.8,027.5,015.4,0000.0,0002.77,0007.80,0002.12
2024-05-17 12:49:00,SystemResetWarning,0823.3,5.00,000.00,025.8,025.1,000.0,033.9,027.5,015.4,0000.0,0002.72,0007.73,0002.12
2024-05-17 12:50:00,SystemResetWarning,0823.3,5.01,000.00,025.8,025.1,000.0,033.9,027.6,015.3,0000.0,0002.77,0007.78,0002.13
2024-05-17 12:51:00,SystemResetWarning,0823.3,4.99,000.00,025.8,025.2,000.0,033.9,027.6,015.2,0000.0,0002.78,0007.72,0002.12
2024-05-17 12:52:00,SystemResetWarning,0823.3,4.99,000.00,025.9,025.2,000.0,033.9,027.6,015.0,0000.0,0002.85,0006.78,0002.11
2024-05-17 12:53:00,SystemResetWarning,0823.3,5.00,000.00,025.9,025.0,000.0,033.9,027.5,015.0,0000.0,0002.86,0007.38,0002.10
2024-05-17 12:54:00,SystemResetWarning,0823.3,5.00,000.00,025.6,023.1,000.0,034.0,026.4,015.2,0000.0,0002.84,0007.37,0002.10
2024-05-17 12:55:00,SystemResetWarning,0823.3,5.00,000.00,025.1,021.6,000.0,034.0,025.6,015.7,0000.0,0002.83,0007.39,0002.09
2024-05-17 12:56:00,SystemResetWarning,0823.3,5.02,000.00,024.9,021.9,000.0,033.9,025.6,016.1,0000.0,0002.80,0007.57,0002.08
2024-05-17 12:57:00,SystemResetWarning,0823.3,5.00,000.00,024.8,022.3,000.0,033.7,025.9,016.5,0000.0,0002.83,0006.92,0002.08
2024-05-17 12:58:00,SystemResetWarning,0823.3,4.99,000.00,024.8,022.7,000.0,033.6,026.1,016.4,0000.0,0002.87,0006.97,0002.08
2024-05-17 12:59:00,SystemResetWarning,0823.4,5.00,000.00,024.9,023.0,000.0,033.5,026.3,016.5,0000.0,0002.90,0006.19,0002.09
